TimeMST,TemperatureF,Dew PointF,Humidity,Sea Level PressureIn,VisibilityMPH,Wind Direction,Wind SpeedMPH,Gust SpeedMPH,PrecipitationIn,Events,Conditions,WindDirDegrees,DateUTC
12:53 AM,57.0,12.9,18,29.88,10.0,SSW,4.6,-,N/A,,Clear,210,2013-03-28 07:53:00
1:53 AM,52.0,15.1,23,29.89,10.0,Calm,Calm,-,N/A,,Clear,0,2013-03-28 08:53:00
2:53 AM,54.0,15.1,22,29.88,10.0,WSW,3.5,-,N/A,,Clear,240,2013-03-28 09:53:00
3:53 AM,50.0,15.1,25,29.89,10.0,South,3.5,-,N/A,,Clear,180,2013-03-28 10:53:00
4:53 AM,48.9,16.0,27,29.90,10.0,SSE,4.6,-,N/A,,Clear,150,2013-03-28 11:53:00
5:53 AM,48.0,17.1,29,29.93,10.0,Calm,Calm,-,N/A,,Clear,0,2013-03-28 12:53:00
6:53 AM,48.0,18.0,30,29.96,10.0,WSW,3.5,-,N/A,,Clear,250,2013-03-28 13:53:00
7:53 AM,53.1,21.9,30,29.98,10.0,Calm,Calm,-,N/A,,Clear,0,2013-03-28 14:53:00
8:53 AM,55.9,21.0,26,29.99,10.0,WNW,6.9,-,N/A,,Clear,290,2013-03-28 15:53:00
9:53 AM,59.0,23.0,25,29.99,10.0,North,6.9,-,N/A,,Clear,360,2013-03-28 16:53:00
10:53 AM,62.1,23.0,22,29.98,10.0,NE,6.9,-,N/A,,Clear,50,2013-03-28 17:53:00
11:53 AM,64.9,19.9,18,29.96,10.0,NE,6.9,-,N/A,,Clear,50,2013-03-28 18:53:00
12:53 PM,68.0,19.0,15,29.93,10.0,NNE,6.9,-,N/A,,Clear,20,2013-03-28 19:53:00
1:53 PM,69.1,19.0,15,29.92,10.0,North,9.2,-,N/A,,Clear,10,2013-03-28 20:53:00
2:53 PM,71.1,18.0,13,29.88,10.0,North,6.9,-,N/A,,Clear,10,2013-03-28 21:53:00
3:53 PM,71.1,19.0,14,29.88,10.0,NE,8.1,-,N/A,,Clear,40,2013-03-28 22:53:00
4:53 PM,72.0,19.0,13,29.86,10.0,Variable,6.9,-,N/A,,Clear,0,2013-03-28 23:53:00
5:53 PM,69.1,19.9,15,29.88,10.0,NE,5.8,-,N/A,,Clear,50,2013-03-29 00:53:00
6:53 PM,66.9,21.0,17,29.89,10.0,ESE,4.6,-,N/A,,Mostly Cloudy,110,2013-03-29 01:53:00
7:53 PM,64.0,19.9,18,29.90,10.0,SSE,6.9,-,N/A,,Mostly Cloudy,160,2013-03-29 02:53:00
8:53 PM,64.0,21.0,19,29.91,10.0,SSW,4.6,-,N/A,,Clear,200,2013-03-29 03:53:00
9:53 PM,64.0,21.0,19,29.93,10.0,SW,4.6,-,N/A,,Clear,230,2013-03-29 04:53:00
10:53 PM,64.0,28.0,26,29.95,10.0,West,5.8,-,N/A,,Clear,270,2013-03-29 05:53:00
11:53 PM,63.0,28.9,28,29.96,10.0,Calm,Calm,-,N/A,,Clear,0,2013-03-29 06:53:00